Погода в Тейшейра-ди-Фрейтас

Бразилия     17°32′27″S   39°42′57″W
темп.,
°C
ветер,
м/с
пор.,
м/с
влажн.,
%
обл.,
%
осадки,
мм/ч
давл.,
гПа
погр.,
м
21 января, чт
чт2100:00+21всв22931 0.0 101537
03:00+20с11921 0.0 101523
06:00+21зюз11929 0.5 101624
09:00+26вюв236628 1.4 1017864
12:00+29всв2449100 0.0 10161717
15:00+29всв6650100 0.0 1015969
18:00+25всв597567 0.0 1015419
21:00+22в358133 0.0 1017120
22 января, пт
пт2200:00+21в11900 0.0 101723
03:00+20зюз11922 0.0 101623
06:00+21зюз229023 0.0 101762
09:00+26ююв347213 1.3 1019839
12:00+29св555971 1.5 10181361
15:00+28в576063 1.7 1017894
18:00+25в597428 0.0 1017344
21:00+22вюв368514 0.0 1018167
23 января, сб
сб2300:00+21вюв22900 0.0 101824
03:00+21юв119216 0.0 101623
06:00+21ю119153 0.0 101730
09:00+26ююв337138 0.6 1019793
12:00+29всв345478 1.4 10171429
15:00+27всв566082 1.6 10151005
18:00+25в377280 0.0 1015210
21:00+22вюв248672 0.0 1017107
24 января, вс
вс2400:00+22вюв129039 0.0 101624
03:00+21ю009333 0.0 101523
06:00+22ююз119055 0.0 101526
09:00+27вюв236477 0.1 10171162
12:00+27вюв556698 0.2 1016907
15:00+29вюв556199 0.5 10131016
18:00+25всв4775100 0.0 1014305
21:00+23в2589100 0.0 1015149
25 января, пн
пн2500:00+22вюв129388 0.0 101424
03:00+21зсз119459 0.3 101323
06:00+22з119255 0.5 101424
09:00+27всв126872 0.6 1016918
12:00+29вюв2360100 0.6 10151278
15:00+29в4559100 1.3 10121308
18:00+25всв587799 0.1 1013557
21:00+23в269097 0.1 1015217